Location: Newark
(34.6283°N, 36.0776°E)
Time: 07:40:26
(UTC+00:00)

Tiros 1 - Pass Details

Date: 22 October 2019
Orbit: 630 x 664 km, 48.4° (Epoch: 12 November)

Event Time Altitude Azimuth Distance (km) Brightness Sun altitude
Exits shadow 01:03:35 13° 22° (NNE) 1,904 9.9 -34.1°
Drops below altitude 10° 01:04:29 10° 32° (NNE) 2,082 10.2 -34.0°
Sets 01:07:44 0° 55° (NE) 2,996 11.4 -33.3°
